Location: Malvern Link
(52.1333°N, 2.3000°W)
Time: 01:07:01
(UTC+00:00)

Meteor 2-13 Rocket - Pass Details

Date: 18 September 2020
Orbit: 936 x 957 km, 82.5° (Epoch: 23 October)

Event Time Altitude Azimuth Distance (km) Brightness Sun altitude
Rises 19:55:53 0° 350° (N) 3,653 8.0 -15.7°
Reaches altitude 10° 19:58:26 10° 353° (N) 2,703 7.2 -16.0°
Maximum altitude 20:04:36 65° 76° (ENE) 1,048 4.4 -16.9°
Enters shadow 20:09:02 19° 154° (SSE) 2,079 5.8 -17.5°
